Change the Weather History Date:

Tuesday, October 4, 2011

  Actual Average (KISN) Record (KISN)
Temperature  
Mean Temperature 60 °F 48 °F  
Max Temperature 75 °F 63 °F 93 °F (1963)
Min Temperature 44 °F 34 °F 19 °F (2004)
Degree Days  
Heating Degree Days 6 17  
Month to date heating degree days 64  
Since 1 July heating degree days 410  
Cooling Degree Days 0 0  
Month to date cooling degree days 0  
Year to date cooling degree days 455  
Growing Degree Days 10 (Base 50)    
Moisture  
Dew Point 48 °F    
Average Humidity 76    
Maximum Humidity 100    
Minimum Humidity 41    
Precipitation  
Precipitation 2.42 in 0.03 in 1.23 in (1998)
Month to date precipitation 0.14  
Year to date precipitation 12.32  
Sea Level Pressure  
Sea Level Pressure 29.86 in    
Wind  
Wind Speed 12 mph (East)    
Max Wind Speed 20 mph    
Max Gust Speed 24 mph    
Visibility 9 miles    
Events      
T = Trace of Precipitation, MM = Missing Value Source: NWS Daily Summary

Daily Weather History Graph

Daily Weather History Graph

Search for Another Location

Airport or City:

Trip Planner

Search our weather history database for the weather conditions in past years. The results will help you decide how hot, cold, wet, or windy it might be!

Date:

Astronomy

Oct. 04, 2011 Rise Set
Actual Time 7:56 AM CDT 7:26 PM CDT
Civil Twilight 7:25 AM CDT 7:57 PM CDT
Nautical Twilight 6:48 AM CDT 8:34 PM CDT
Astronomical Twilight 6:11 AM CDT 9:11 PM CDT
Moon 4:01 PM CDT (10/4) 12:07 AM CDT (10/4)
Length of Visible Light 12h 32m
Length of Day
11h 29m
First Quarter, 56% of the Moon is Illuminated
Oct 4
First Quarter
Oct 11
Full
Oct 19
Last Quarter
Oct 26
New
Nov 2
First Quarter

Hourly Weather History & Observations

Time (CDT) Temp. Windchill Dew Point Humidity Pressure Visibility Wind Dir Wind Speed Gust Speed Precip Events Conditions
12:15 AM 51.8 °F - 46.4 °F 82% 30.02 in 10.0 mi East 8.1 mph - N/A   Clear
12:35 AM 50.0 °F - 46.4 °F 87% 30.02 in 10.0 mi East 8.1 mph - N/A   Clear
12:55 AM 50.0 °F - 46.4 °F 87% 30.02 in 10.0 mi East 6.9 mph - N/A   Clear
1:15 AM 50.0 °F - 46.4 °F 87% 30.02 in 10.0 mi East 8.1 mph - N/A   Clear
1:35 AM 48.2 °F - 46.4 °F 93% 30.01 in 10.0 mi East 8.1 mph - N/A   Clear
1:55 AM 48.2 °F - 46.4 °F 93% 30.00 in 10.0 mi East 8.1 mph - N/A   Clear
2:15 AM 50.0 °F - 46.4 °F 87% 30.00 in 10.0 mi East 9.2 mph - N/A   Clear
2:35 AM 50.0 °F - 46.4 °F 87% 30.00 in 10.0 mi East 11.5 mph - N/A   Clear
3:15 AM 48.2 °F - 46.4 °F 93% 30.00 in 10.0 mi East 11.5 mph 17.3 mph N/A   Clear
3:35 AM 48.2 °F - 46.4 °F 93% 29.99 in 10.0 mi East 11.5 mph - N/A   Clear
3:55 AM 48.2 °F - 46.4 °F 93% 29.98 in 10.0 mi East 12.7 mph - N/A   Clear
4:15 AM 48.2 °F - 46.4 °F 93% 29.98 in 10.0 mi East 11.5 mph - N/A   Clear
4:35 AM 46.4 °F 40.7 °F 46.4 °F 100% 29.97 in 10.0 mi East 12.7 mph 18.4 mph N/A   Clear
4:55 AM 46.4 °F 41.5 °F 46.4 °F 100% 29.97 in 10.0 mi East 10.4 mph - N/A   Clear
5:15 AM 46.4 °F 41.5 °F 44.6 °F 93% 29.97 in 10.0 mi East 10.4 mph - N/A   Clear
5:35 AM 46.4 °F 41.9 °F 44.6 °F 93% 29.97 in 10.0 mi East 9.2 mph - N/A   Clear
5:55 AM 46.4 °F 41.1 °F 44.6 °F 93% 29.96 in 10.0 mi East 11.5 mph - N/A   Partly Cloudy
6:15 AM 44.6 °F 37.8 °F 44.6 °F 100% 29.96 in 10.0 mi East 15.0 mph - N/A   Partly Cloudy
6:35 AM 44.6 °F 38.1 °F 44.6 °F 100% 29.95 in 10.0 mi East 13.8 mph - 0.01 in   Partly Cloudy
6:55 AM 44.6 °F 37.8 °F 44.6 °F 100% 29.95 in 9.0 mi East 15.0 mph - 0.02 in   Mostly Cloudy
7:15 AM 44.6 °F 38.4 °F 44.6 °F 100% 29.95 in 2.5 mi East 12.7 mph - N/A   Overcast
7:35 AM 44.6 °F 38.1 °F 44.6 °F 100% 29.94 in 1.2 mi East 13.8 mph - 0.07 in   Overcast
7:55 AM 44.6 °F 38.1 °F 44.6 °F 100% 29.94 in 1.2 mi East 13.8 mph - 1.22 in   Overcast
8:15 AM 44.6 °F 38.8 °F 44.6 °F 100% 29.94 in 0.8 mi East 11.5 mph - 0.23 in   Overcast
8:35 AM 44.6 °F 38.1 °F 44.6 °F 100% 29.94 in 0.8 mi East 13.8 mph - 0.44 in   Overcast
9:15 AM 44.6 °F 38.1 °F 44.6 °F 100% 29.92 in 1.5 mi East 13.8 mph - 0.18 in   Overcast
9:35 AM 46.4 °F 40.1 °F 46.4 °F 100% 29.92 in 9.0 mi East 15.0 mph - 0.74 in   Overcast
9:55 AM 46.4 °F 40.1 °F 46.4 °F 100% 29.92 in 10.0 mi East 15.0 mph 20.7 mph 0.74 in   Overcast
10:15 AM 48.2 °F - 46.4 °F 93% 29.91 in 10.0 mi East 16.1 mph - N/A   Overcast
10:35 AM 50.0 °F - 48.2 °F 94% 29.91 in 10.0 mi East 13.8 mph - N/A   Scattered Clouds
11:15 AM 53.6 °F - 48.2 °F 82% 29.91 in 10.0 mi East 15.0 mph - N/A   Clear
11:35 AM 55.4 °F - 48.2 °F 77% 29.90 in 10.0 mi East 16.1 mph - N/A   Clear
11:55 AM 57.2 °F - 48.2 °F 72% 29.89 in 10.0 mi East 15.0 mph - N/A   Clear
12:15 PM 59.0 °F - 48.2 °F 67% 29.87 in 10.0 mi East 12.7 mph - N/A   Clear
12:35 PM 60.8 °F - 48.2 °F 63% 29.86 in 10.0 mi East 15.0 mph - N/A   Clear
1:15 PM 62.6 °F - 48.2 °F 59% 29.83 in 10.0 mi East 16.1 mph - N/A   Clear
1:35 PM 64.4 °F - 48.2 °F 56% 29.81 in 10.0 mi East 17.3 mph - N/A   Clear
2:15 PM 66.2 °F - 50.0 °F 56% 29.79 in 10.0 mi East 19.6 mph - N/A   Clear
2:55 PM 69.8 °F - 50.0 °F 49% 29.77 in 10.0 mi East 19.6 mph - N/A   Clear
3:15 PM 71.6 °F - 50.0 °F 46% 29.76 in 10.0 mi East 19.6 mph 24.2 mph N/A   Clear
3:35 PM 73.4 °F - 50.0 °F 44% 29.75 in 10.0 mi ESE 18.4 mph - N/A   Clear
4:15 PM 75.2 °F - 50.0 °F 41% 29.74 in 10.0 mi East 17.3 mph - N/A   Clear
4:35 PM 75.2 °F - 50.0 °F 41% 29.73 in 10.0 mi East 16.1 mph - N/A   Clear
4:55 PM 75.2 °F - 50.0 °F 41% 29.72 in 10.0 mi ESE 18.4 mph 23.0 mph N/A   Clear
5:15 PM 75.2 °F - 50.0 °F 41% 29.71 in 10.0 mi ESE 18.4 mph 24.2 mph N/A   Clear
5:35 PM 75.2 °F - 50.0 °F 41% 29.71 in 10.0 mi ESE 18.4 mph 23.0 mph N/A   Clear
5:55 PM 73.4 °F - 50.0 °F 44% 29.71 in 10.0 mi ESE 13.8 mph - N/A   Clear
6:15 PM 73.4 °F - 51.8 °F 47% 29.70 in 10.0 mi ESE 17.3 mph - N/A   Clear
6:35 PM 71.6 °F - 51.8 °F 50% 29.70 in 10.0 mi East 15.0 mph 20.7 mph N/A   Clear
6:55 PM 71.6 °F - 51.8 °F 50% 29.70 in 10.0 mi East 13.8 mph - N/A   Clear
7:15 PM 68.0 °F - 51.8 °F 56% 29.69 in 10.0 mi East 11.5 mph - N/A   Clear
7:35 PM 66.2 °F - 51.8 °F 60% 29.69 in 10.0 mi East 12.7 mph - N/A   Clear
7:55 PM 66.2 °F - 51.8 °F 60% 29.69 in 10.0 mi East 12.7 mph - N/A   Clear
8:15 PM 64.4 °F - 51.8 °F 64% 29.69 in 10.0 mi East 13.8 mph - N/A   Clear
8:35 PM 64.4 °F - 53.6 °F 68% 29.68 in 10.0 mi East 13.8 mph - N/A   Clear
8:55 PM 62.6 °F - 51.8 °F 68% 29.68 in 10.0 mi East 11.5 mph - N/A   Clear
9:35 PM 66.2 °F - 51.8 °F 60% 29.66 in 10.0 mi ESE 17.3 mph 21.9 mph N/A   Clear
9:55 PM 64.4 °F - 51.8 °F 64% 29.66 in 10.0 mi East 12.7 mph - N/A   Clear
10:15 PM 64.4 °F - 51.8 °F 64% 29.65 in 10.0 mi East 13.8 mph - N/A   Clear
10:35 PM 64.4 °F - 51.8 °F 64% 29.65 in 10.0 mi East 13.8 mph 18.4 mph N/A   Clear
10:55 PM 66.2 °F - 50.0 °F 56% 29.64 in 10.0 mi East 10.4 mph - N/A   Clear
11:15 PM 64.4 °F - 50.0 °F 59% 29.64 in 10.0 mi ENE 5.8 mph - N/A   Clear
11:35 PM 66.2 °F - 50.0 °F 56% 29.63 in 10.0 mi SSE 10.4 mph - N/A   Clear
11:55 PM 68.0 °F - 50.0 °F 52% 29.61 in 10.0 mi SSE 21.9 mph 26.5 mph N/A   Clear